Weather reports worldwide

Advertisment
Le Touquet, France (7003): temperature & dewpoint: 16.02.2019 22:00:00 - 22.02.2019 22:00:00 (CET)Le Touquet, France (7003): temperature 5cm: 16.02.2019 22:00:00 - 22.02.2019 22:00:00 (CET)Le Touquet, France (7003): wind speed & gusts: 16.02.2019 22:00:00 - 22.02.2019 22:00:00 (CET)Le Touquet, France (7003): wind direction: 16.02.2019 22:00:00 - 22.02.2019 22:00:00 (CET)Le Touquet, France (7003): reduced air pressure: 16.02.2019 22:00:00 - 22.02.2019 22:00:00 (CET)Le Touquet, France (7003): visibility: 16.02.2019 22:00:00 - 22.02.2019 22:00:00 (CET)Le Touquet, France (7003): sunshine duration: 16.02.2019 22:00:00 - 22.02.2019 22:00:00 (CET)Le Touquet, France (7003): precipitation: 16.02.2019 22:00:00 - 22.02.2019 22:00:00 (CET)
Date & Time tt [°C] td [°C] tt 5cm [°C] ff [km/h] ff [kn] fx [km/h] fx [kn] dd ppp [hPa] vv [km] sd [min] rr [mm]
22.02.2019 22:00:00 8,5 7,7 6,7 12 6 16 9 ESE 1036,1 3,1 - 0,0
22.02.2019 21:00:00 8,7 7,9 6,6 11 6 16 9 E 1036,0 3,1 - 0,0
22.02.2019 20:00:00 8,8 7,9 6,5 6 4 18 10 SE 1035,9 2,9 - 0,0
22.02.2019 19:00:00 10,3 8,6 8,8 14 8 21 12 ESE 1035,8 5 - 0,0
22.02.2019 18:00:00 11,7 8,9 10,5 9 5 14 7 E 1035,7 6 0 0,0
22.02.2019 17:00:00 10,4 8,3 12,7 6 3 16 8 N 1035,6 10 5 0,0
22.02.2019 16:00:00 13,2 9,1 14,2 6 3 16 9 E 1035,9 11 6 0,0
22.02.2019 15:00:00 13,2 8,3 14,8 13 7 19 10 SE 1036,0 10 54 0,0
22.02.2019 14:00:00 13,0 8,9 18,0 14 8 19 10 SE 1036,0 9 60 0,0
22.02.2019 13:00:00 8,9 8,0 10,5 3 2 20 11 N 1036,5 8 55 0,0
22.02.2019 12:00:00 8,3 7,2 9,1 4 2 16 9 SSE 1036,7 13 46 0,0
22.02.2019 11:00:00 5,8 5,8 5,8 9 5 24 13 SE 1036,0 7 2 0,0
22.02.2019 10:00:00 5,0 5,0 5,5 17 9 26 14 ESE 1034,9 0,3 0 0,0
22.02.2019 09:00:00 5,2 5,2 5,4 9 5 12 7 ESE 1035,6 0,4 - 0,0
22.02.2019 08:00:00 5,4 5,4 5,3 3 1 7 4 ENE 1035,5 0,5 - 0,0
22.02.2019 07:00:00 5,7 5,7 5,6 4 2 8 4 ENE 1034,9 0,3 - 0,0
22.02.2019 06:00:00 5,9 5,9 5,9 6 3 8 5 NNE 1034,5 1,3 - 0,0
22.02.2019 05:00:00 6,2 6,2 6,0 0 0 6 4 N 1034,1 0,3 - 0,0
22.02.2019 04:00:00 6,0 6,0 6,0 0 0 7 4 N 1033,7 0,3 - 0,0
22.02.2019 03:00:00 6,5 6,5 6,5 2 1 8 4 SSW 1033,6 0,2 - 0,0
22.02.2019 02:00:00 6,6 6,6 6,6 0 0 9 5 N 1033,4 0,4 - 0,0
22.02.2019 01:00:00 6,8 6,8 6,6 3 2 10 5 W 1033,4 0,4 - 0,0
22.02.2019 00:00:00 6,7 6,7 6,6 6 4 13 7 W 1033,2 1,4 - 0,0
21.02.2019 23:00:00 6,8 6,8 6,8 5 3 11 6 W 1032,9 1,9 - 0,0
21.02.2019 22:00:00 7,1 7,1 7,0 2 1 9 5 W 1032,0 1,3 - 0,0
21.02.2019 21:00:00 7,2 7,2 7,0 0 0 8 4 N 1031,8 1,8 - 0,0
21.02.2019 20:00:00 7,1 7,1 6,9 5 3 11 6 WSW 1031,4 3,2 - 0,0
21.02.2019 19:00:00 7,0 7,0 6,8 6 3 14 7 W 1030,7 0,6 - 0,0
21.02.2019 18:00:00 6,9 6,9 6,9 10 5 17 9 W 1029,7 0,2 - 0,0
21.02.2019 17:00:00 6,9 6,9 7,4 5 3 23 13 W 1029,4 0,3 0 0,0
21.02.2019 16:00:00 7,0 7,0 8,0 13 7 24 13 WSW 1029,3 0,6 0 0,0
21.02.2019 15:00:00 7,2 7,2 8,5 15 8 21 11 SW 1029,3 0,8 0 0,0
21.02.2019 14:00:00 7,4 7,3 8,8 9 5 24 13 SW 1029,5 1,9 0 0,0
21.02.2019 13:00:00 7,4 7,3 8,9 14 7 28 15 SW 1029,2 1,1 2 0,0
21.02.2019 12:00:00 9,2 7,5 13,2 18 10 29 15 SW 1028,9 5 46 0,0
21.02.2019 11:00:00 9,2 7,8 8,2 13 7 22 12 SW 1028,2 5 24 0,0
21.02.2019 10:00:00 7,1 7,1 5,6 6 3 19 10 SSW 1027,5 4,1 0 0,0
21.02.2019 09:00:00 4,9 4,9 1,1 6 3 9 5 SE 1027,2 1,7 - 0,0
21.02.2019 08:00:00 3,6 3,6 0,0 6 3 10 5 SE 1026,2 1,0 - 0,0
21.02.2019 07:00:00 2,4 2,4 -1,2 6 4 9 5 SSE 1025,6 0,9 - 0,0
21.02.2019 06:00:00 2,4 2,4 -1,6 4 2 9 5 SE 1025,8 1,1 - 0,0
21.02.2019 05:00:00 2,7 2,7 -1,1 7 4 9 5 SE 1025,6 0,6 - 0,0
21.02.2019 04:00:00 3,3 3,3 -1,2 7 4 9 5 ESE 1025,7 1,1 - 0,0
21.02.2019 03:00:00 3,5 3,5 -1,6 6 4 8 5 ESE 1025,7 1,4 - 0,0
21.02.2019 02:00:00 2,4 2,1 -2,4 3 2 7 4 SSE 1025,6 1,2 - 0,0
21.02.2019 01:00:00 3,5 3,1 -1,4 5 3 9 5 SSE 1025,0 2,5 - 0,0
21.02.2019 00:00:00 3,2 2,6 -1,2 4 2 8 5 SE 1024,7 2,3 - 0,0
20.02.2019 23:00:00 5,2 4,3 0,9 8 4 9 5 SE 1024,4 3,9 - 0,0
20.02.2019 22:00:00 5,4 4,5 0,4 8 4 9 5 SE 1024,2 4,8 - 0,0
20.02.2019 21:00:00 4,9 4,0 0,2 5 3 8 4 SE 1024,1 6 - 0,0
20.02.2019 20:00:00 8,0 5,1 3,3 6 3 15 8 SSW 1024,1 13 - 0,0
20.02.2019 19:00:00 8,8 5,5 6,5 7 4 16 9 SW 1023,9 12 - 0,0
20.02.2019 18:00:00 9,7 6,0 8,2 9 5 23 12 SW 1023,4 12 - 0,0
20.02.2019 17:00:00 10,6 6,2 10,4 13 7 26 14 SW 1023,3 10 16 0,0
20.02.2019 16:00:00 10,4 6,3 10,2 14 8 31 17 SW 1023,3 15 60 0,0
20.02.2019 15:00:00 9,7 6,0 10,7 21 11 32 17 SW 1023,4 16 60 0,0
20.02.2019 14:00:00 9,4 5,8 13,7 21 11 32 17 SW 1023,4 18 60 0,0
20.02.2019 13:00:00 9,8 6,1 10,9 16 9 28 15 SW 1023,4 17 60 0,0
20.02.2019 12:00:00 8,6 4,4 10,7 11 6 19 10 S 1023,5 12 60 0,0
20.02.2019 11:00:00 5,9 4,1 7,6 11 6 18 10 SE 1023,3 6 50 0,0
20.02.2019 10:00:00 3,9 3,0 2,5 10 6 14 8 SE 1023,2 6 0 0,0
20.02.2019 09:00:00 1,8 1,8 -0,8 7 4 11 6 SE 1022,7 3,7 - 0,0
20.02.2019 08:00:00 0,8 0,8 -1,3 8 4 11 6 SE 1021,8 3,0 - 0,0
20.02.2019 07:00:00 1,3 1,3 -2,4 8 4 11 6 SE 1021,3 3,1 - 0,0
20.02.2019 06:00:00 1,0 0,9 -2,1 5 3 10 6 SSE 1021,4 3,0 - 0,0
20.02.2019 05:00:00 1,7 1,7 -1,0 7 4 9 5 SE 1021,1 1,9 - 0,0
20.02.2019 04:00:00 2,0 2,0 -1,7 6 3 9 5 SSE 1021,2 2,8 - 0,0
20.02.2019 03:00:00 1,5 1,5 -1,7 5 3 10 5 SSE 1021,7 2,5 - 0,0
20.02.2019 02:00:00 1,7 1,7 -1,6 5 3 8 4 SSE 1021,9 2,6 - 0,0
20.02.2019 01:00:00 1,7 1,7 -1,3 5 3 8 5 SSE 1021,8 2,1 - 0,0
20.02.2019 00:00:00 2,0 2,0 -0,6 5 3 8 4 SSE 1021,9 1,4 - 0,0
19.02.2019 23:00:00 2,8 2,8 1,1 5 3 8 4 SSE 1021,9 0,1 - 0,0
19.02.2019 22:00:00 3,3 3,3 2,5 5 3 10 5 SSE 1022,1 0,2 - 0,0
19.02.2019 21:00:00 3,9 3,9 -0,7 4 2 9 5 SSE 1021,8 0,1 - 0,0
19.02.2019 20:00:00 3,9 3,6 -0,7 0 0 9 5 N 1021,9 0,1 - 0,0
19.02.2019 19:00:00 5,1 5,0 3,3 6 3 16 9 SSW 1021,6 1,6 - 0,0
19.02.2019 18:00:00 6,9 6,3 6,3 9 5 23 13 W 1021,5 0,6 - 0,0
19.02.2019 17:00:00 7,8 6,6 8,2 17 9 34 19 SW 1021,6 10 8 0,0
19.02.2019 16:00:00 8,5 6,6 8,9 16 8 36 19 WSW 1021,7 12 25 0,0
19.02.2019 15:00:00 8,4 6,9 9,6 16 8 32 18 SW 1021,7 13 2 0,0
19.02.2019 14:00:00 7,7 6,9 8,5 18 10 33 18 WSW 1021,9 12 1 0,0
19.02.2019 13:00:00 6,8 6,7 7,9 16 9 32 17 SW 1022,1 1,5 0 0,0
19.02.2019 12:00:00 7,1 7,0 8,2 20 11 32 17 SW 1022,2 1,4 0 0,0
19.02.2019 11:00:00 8,3 7,7 9,5 15 8 24 13 SW 1021,8 8 17 0,0
19.02.2019 10:00:00 8,0 7,7 6,1 9 5 18 10 SW 1021,5 9 4 0,0
19.02.2019 09:00:00 5,0 5,0 -0,8 5 3 8 4 SSW 1021,0 8 - 0,0
19.02.2019 08:00:00 3,4 3,3 -0,6 4 2 7 4 SSW 1020,2 2,7 - 0,0
19.02.2019 07:00:00 4,8 4,4 0,5 5 3 9 5 WSW 1019,8 12 - 0,0
19.02.2019 06:00:00 5,8 5,5 1,1 6 3 9 5 W 1019,6 11 - 0,0
19.02.2019 05:00:00 6,7 6,1 4,2 7 4 14 8 W 1019,2 10 - 0,0
19.02.2019 04:00:00 7,1 6,8 5,0 8 4 15 8 WSW 1019,0 7 - 0,2
19.02.2019 03:00:00 7,4 7,0 5,9 9 5 21 12 WSW 1018,7 10 - 0,0
19.02.2019 02:00:00 7,8 7,2 6,8 12 6 24 13 SW 1018,4 16 - 0,0
19.02.2019 01:00:00 7,5 6,9 6,1 12 6 23 13 WSW 1018,4 20 - 0,0
19.02.2019 00:00:00 7,7 7,1 7,1 11 6 18 10 SW 1018,2 17 - 0,0
18.02.2019 23:00:00 7,6 7,0 6,5 9 5 15 8 SW 1018,2 19 - 0,0
18.02.2019 22:00:00 7,4 7,0 6,4 6 3 9 5 SW 1017,9 19 - 0,0
18.02.2019 21:00:00 7,5 6,8 6,6 4 2 10 5 SW 1017,5 16 - 0,2
18.02.2019 20:00:00 8,1 6,7 7,3 7 4 16 9 WNW 1017,2 12 - 0,0
18.02.2019 19:00:00 8,8 7,7 8,2 9 5 14 8 W 1016,6 9 - 0,0
18.02.2019 18:00:00 9,1 7,7 8,6 6 3 16 9 W 1016,0 7 - 0,0
18.02.2019 17:00:00 9,8 7,9 10,0 9 5 18 10 WNW 1016,0 9 0 0,0
18.02.2019 16:00:00 10,3 7,4 11,8 9 5 18 10 NW 1015,6 11 0 0,0
18.02.2019 15:00:00 11,1 7,0 13,2 10 5 21 12 W 1015,7 14 3 0,0
18.02.2019 14:00:00 11,8 6,1 15,6 12 6 23 13 W 1016,1 17 6 0,0
18.02.2019 13:00:00 12,9 8,0 14,4 7 4 14 8 SW 1016,6 18 11 0,0
18.02.2019 12:00:00 11,2 7,1 11,5 9 5 15 8 SE 1017,0 13 3 0,0
18.02.2019 11:00:00 8,4 5,5 9,9 7 4 11 6 SE 1017,6 13 5 0,0
18.02.2019 10:00:00 7,7 5,2 5,9 6 3 10 5 SE 1017,9 13 4 0,0
18.02.2019 09:00:00 5,8 4,1 4,6 7 4 13 7 SE 1018,0 10 - 0,0
18.02.2019 08:00:00 5,4 3,9 2,6 10 6 13 7 SE 1017,7 12 - 0,0
18.02.2019 07:00:00 5,5 3,8 3,3 5 3 10 5 S 1017,6 14 - 0,0
18.02.2019 06:00:00 4,5 3,0 1,6 5 3 12 7 SE 1017,8 10 - 0,0
18.02.2019 05:00:00 5,9 3,7 4,4 7 4 12 6 SE 1017,9 16 - 0,0
18.02.2019 04:00:00 5,6 4,2 0,3 3 2 6 4 SSE 1018,3 15 - 0,0
18.02.2019 03:00:00 4,6 2,0 0,4 6 3 9 5 SE 1018,7 18 - 0,0
18.02.2019 02:00:00 4,8 2,8 0,3 6 3 9 5 SE 1018,7 14 - 0,0
18.02.2019 01:00:00 6,4 3,4 2,0 8 4 11 6 SE 1018,5 15 - 0,0
18.02.2019 00:00:00 6,9 3,5 1,8 7 4 10 5 SE 1018,4 13 - 0,0
17.02.2019 23:00:00 7,1 3,7 2,5 9 5 11 6 SE 1018,5 16 - 0,0
17.02.2019 22:00:00 6,9 4,0 2,7 9 5 11 6 SE 1018,6 13 - 0,0
17.02.2019 21:00:00 7,4 4,0 1,6 8 4 9 5 SE 1018,4 10 - 0,0
17.02.2019 20:00:00 8,1 3,7 2,1 3 1 7 4 SE 1018,5 13 - 0,0
17.02.2019 19:00:00 10,4 3,9 5,5 4 2 13 7 S 1018,2 20 - 0,0
17.02.2019 18:00:00 12,4 4,6 10,6 8 5 19 11 SSW 1017,8 33 - 0,0
17.02.2019 17:00:00 13,4 4,3 13,7 13 7 28 15 SW 1017,7 34 0 0,0
17.02.2019 16:00:00 14,8 3,6 14,3 16 9 32 17 SSW 1017,6 32 0 0,0
17.02.2019 15:00:00 14,6 2,8 15,2 17 9 29 16 SW 1017,5 24 0 0,0
17.02.2019 14:00:00 15,3 3,4 18,0 14 7 22 12 SW 1017,7 24 0 0,0
17.02.2019 13:00:00 14,2 3,0 13,6 13 7 24 13 SSE 1017,6 15 9 0,0
17.02.2019 12:00:00 12,9 3,8 14,3 15 8 24 13 SSE 1018,0 10 10 0,0
17.02.2019 11:00:00 10,1 3,8 7,3 13 7 23 12 SE 1018,4 11 12 0,0
17.02.2019 10:00:00 6,6 3,0 5,1 16 8 22 12 ESE 1018,5 10 0 0,0
17.02.2019 09:00:00 4,8 2,5 2,1 15 8 23 12 ESE 1018,7 7 - 0,0
17.02.2019 08:00:00 3,8 2,0 1,9 15 8 18 10 ESE 1019,0 6 - 0,0
17.02.2019 07:00:00 4,0 2,2 1,9 13 7 16 9 ESE 1019,2 5 - 0,0
17.02.2019 06:00:00 4,2 2,5 2,0 15 8 18 10 ESE 1019,7 5 - 0,0
17.02.2019 05:00:00 3,9 2,4 1,6 11 6 15 8 ESE 1020,3 4,9 - 0,0
17.02.2019 04:00:00 3,8 2,6 1,6 11 6 14 7 ESE 1020,9 4,3 - 0,0
17.02.2019 03:00:00 3,9 2,6 2,2 10 6 13 7 SE 1021,6 4,2 - 0,0
17.02.2019 02:00:00 4,4 3,1 1,5 10 6 14 7 SE 1021,9 4,6 - 0,0
17.02.2019 01:00:00 4,3 2,8 1,9 8 4 13 7 SE 1022,5 5 - 0,0
17.02.2019 00:00:00 4,6 3,1 2,1 9 5 13 7 SE 1022,9 4,7 - 0,0
16.02.2019 23:00:00 5,6 3,8 2,9 11 6 13 7 SE 1023,3 5 - 0,0
16.02.2019 22:00:00 6,1 4,3 3,6 10 5 12 7 SE 1023,6 5 - 0,0

tt = temperature
td = dewpoint
tt 5cm = temperature 5cm
ff = wind speed
fx = gusts
dd = wind direction
ppp = reduced air pressure
vv = visibility
sd = sunshine duration
rr = precipitation

Next stations